STARLINK-32953, 63561

Orbit data source: Space-Track

STARLINK-32953, 63561 is a payload satellite owned by SpaceX/Seattle (US) in LEO that was launched on Sun, 13 Apr 2025 UTC via an FALCON 9 launch vehicle from the Air Force Eastern Test Range (AFETR). Payload-class satellites include a variety of spacecraft equipped with specific instruments for various scientific and technological missions. These include communications satellites like Starlink; space stations such as the ISS; scientific satellites like the Hubble; Earth observation satellites from companies like Planet Labs, Umbra, and HawkEye 360; GPS; miniature CubeSats for education and research; and military/defense satellites.

Loading next visibility...
Identifier
63561, 2025-075P
Orbit
LEO
Last TLE update
2 hours ago
Origin
Manufacturer
SpaceX/Seattle
Mission
Operational spacecraft
Bus & Motor
STARLINK V2M, Unknown motor
Mass
730 kg wet, ~700 kg dry
Launch date (UTC)
2025-04-13 (3 weeks ago)
Launch vehicle
FALCON 9
Launch site
Air Force Eastern Test Range (AFETR)
Object type
Payload
Rocket body
Debris
Shape & HBR
Unknown
Radar Cross Section
Large (>1 m²)

Expand to show TLE details & history

TLE from 2 hours ago
0 STARLINK-32953
1 63561U 25075P   25126.25002315 -.01502251  00000-0 -28177-1 0  9998
2 63561  42.9993 210.9149 0001573 259.4165  44.6770 15.50675965  4857
Epoch: 2025-05-06T06:00Z
Definitive object data (Epoch: 2025-05-06T06:00:02Z)
Latitude
-34.55761°
Longitude
-150.71152°
Altitude
423.8 km
Speed
7.658 km/s
True Right ascension
10h 54m 35s
True Declination
-34° 23' 21"
Sunlit
Object was in full shadow at TLE epoch
Visualization TLE readout
Latitude
41.98787°
Longitude
2.31331°
Altitude
419.507 km
Speed
7.665 km/s
Apparent Right ascension
00h 33m 49s
Apparent Declination
4° 20' 10"
Sunlit
Object is in daylight
Visualization observer readout
Local Sidereal Time
16:10:47
Azimuth
61.91° ENE
Elevation
-23.478°
Doppler factor
1
Orbital elements
Apogee altitude
417.785 km
Perigee altitude
415.647 km
Semi-major axis
6,794.853 km
Eccentricity
0.0001573
Inclination
42.9993°
RAAN
210.9149°
Arg. of periapsis
259.4165°
True anomaly
44.68968°
Mean anomaly
44.677°
Eccentric anomaly
44.68334°
Mean motion
3.87501 °/min
BSTAR
-0.028177
Orbital period
92.9 mins
Loading maneuver chart data...
Loading SW <> Apogee altitude chart data...
Loading historical data...
Loading historical data...
Loading historical data...
Loading historical data...
Loading historical data...
Loading historical data...
Loading historical data...

STARLINK-32953 Visibility forecast

Observer location: undefined°, undefined°

Span
Click to sort rows by Start time (UTC) header in descending order
Start Az.
Max El. time (UTC)
Max El. Az.
Max El.
End time (UTC)
End Az.
5 mins2025-05-06 09:33:29.884Z228.759° WSW2025-05-06 09:36:29.884Z129.993° SE36.738°2025-05-06 09:38:29.884Z82.672° E
5 mins2025-05-06 11:11:29.884Z278.901° WNW2025-05-06 11:13:29.884Z341.217° N38.782°2025-05-06 11:16:29.884Z68.866° E
5 mins2025-05-06 12:49:29.884Z298.14° NW2025-05-06 12:51:29.884Z22.863° NE39.285°2025-05-06 12:54:29.884Z88.557° E
4 mins2025-05-06 14:27:29.884Z262.847° W2025-05-06 14:28:29.884Z226.455° WSW35.324°2025-05-06 14:31:29.884Z134.135° SE
|